Weather History for Caldwell, ID

Change the Weather History Date:

Sunday, November 13, 2011

  Actual Average (KBOI) Record (KBOI)
Temperature  
Mean Temperature 43 °F 41 °F  
Max Temperature 53 °F 49 °F 69 °F (1939)
Min Temperature 33 °F 33 °F 7 °F (1916)
Degree Days  
Heating Degree Days 22 24  
Month to date heating degree days 277  
Since 1 July heating degree days 783  
Cooling Degree Days 0 0  
Month to date cooling degree days 0  
Year to date cooling degree days 942  
Moisture  
Dew Point 31 °F    
Average Humidity 65    
Maximum Humidity 81    
Minimum Humidity 38    
Precipitation  
Precipitation 0.01 in 0.04 in 0.80 in (1897)
Month to date precipitation 0.53  
Year to date precipitation 9.36  
Snow  
Snow 0.00 in 0.10 in 2.30 in (1947)
Month to date snowfall 0.5  
Since 1 July snowfall 0.6  
Snow Depth -    
Sea Level Pressure  
Sea Level Pressure 29.81 in    
Wind  
Wind Speed 8 mph (ESE)    
Max Wind Speed 20 mph    
Max Gust Speed 21 mph    
Visibility 10 miles    
Events      
T = Trace of Precipitation, MM = Missing Value Source: NWS Daily Summary

Daily Weather History Graph

Daily Weather History Graph

Search for Another Location

Airport:

Trip Planner

Search our weather history database for the weather conditions in past years. The results will help you decide how hot, cold, wet, or windy it might be!

Date:

Astronomy

Nov. 13, 2011 Rise Set
Actual Time 7:37 AM MST 5:23 PM MST
Civil Twilight 7:06 AM MST 5:54 PM MST
Nautical Twilight 6:32 AM MST 6:28 PM MST
Astronomical Twilight 5:58 AM MST 7:02 PM MST
Moon 7:33 PM MST (11/13) 10:17 AM MST (11/13)
Length of Visible Light 10h 47m
Length of Day
9h 45m
Waning Gibbous, 92% of the Moon is Illuminated
Nov 13
Waning Gibbous
Nov 18
Last Quarter
Nov 24
New
Dec 2
First Quarter
Dec 10
Full

Hourly Weather History & Observations

Time (MST) Temp. Windchill Dew Point Humidity Pressure Visibility Wind Dir Wind Speed Gust Speed Precip Events Conditions
12:15 AM 35.6 °F 30.7 °F 30.2 °F 81% 29.81 in 10.0 mi ESE 5.8 mph - N/A   Overcast
12:35 AM 35.6 °F 29.2 °F 30.2 °F 81% 29.81 in 10.0 mi East 8.1 mph - N/A   Overcast
1:15 AM 35.6 °F 28.6 °F 30.2 °F 81% 29.81 in 10.0 mi ESE 9.2 mph - N/A   Overcast
1:35 AM 35.6 °F 31.7 °F 30.2 °F 81% 29.81 in 10.0 mi SE 4.6 mph - N/A   Overcast
1:55 AM 35.6 °F 28.6 °F 30.2 °F 81% 29.79 in 10.0 mi SSE 9.2 mph - N/A   Overcast
2:15 AM 35.6 °F 28.0 °F 30.2 °F 81% 29.78 in 10.0 mi SE 10.4 mph - N/A   Overcast
2:35 AM 35.6 °F 28.0 °F 30.2 °F 81% 29.78 in 10.0 mi SE 10.4 mph - N/A   Overcast
2:55 AM 35.6 °F 27.5 °F 30.2 °F 81% 29.79 in 10.0 mi ESE 11.5 mph - N/A   Overcast
3:15 AM 35.6 °F 27.5 °F 30.2 °F 81% 29.80 in 10.0 mi SE 11.5 mph - N/A   Overcast
3:35 AM 35.6 °F 27.1 °F 28.4 °F 75% 29.78 in 10.0 mi SE 12.7 mph - N/A   Overcast
3:55 AM 35.6 °F 28.0 °F 28.4 °F 75% 29.78 in 10.0 mi SE 10.4 mph - N/A   Mostly Cloudy
4:15 AM 33.8 °F 25.8 °F 28.4 °F 81% 29.77 in 10.0 mi SE 10.4 mph - N/A   Mostly Cloudy
4:35 AM 35.6 °F 28.0 °F 28.4 °F 75% 29.78 in 10.0 mi SE 10.4 mph - N/A   Overcast
4:55 AM 35.6 °F 28.0 °F 30.2 °F 81% 29.77 in 10.0 mi SE 10.4 mph - N/A   Overcast
5:15 AM 35.6 °F 27.5 °F 30.2 °F 81% 29.78 in 10.0 mi SE 11.5 mph - N/A   Overcast
5:55 AM 35.6 °F 29.9 °F 30.2 °F 81% 29.78 in 10.0 mi South 6.9 mph - N/A   Overcast
6:15 AM 33.8 °F 27.0 °F 28.4 °F 81% 29.78 in 10.0 mi SE 8.1 mph - N/A   Overcast
6:35 AM 33.8 °F 27.0 °F 28.4 °F 81% 29.78 in 10.0 mi SE 8.1 mph - N/A   Overcast
6:55 AM 33.8 °F 28.6 °F 28.4 °F 81% 29.78 in 10.0 mi SSE 5.8 mph - N/A   Overcast
7:35 AM 33.8 °F 28.6 °F 28.4 °F 81% 29.78 in 10.0 mi SSE 5.8 mph - N/A   Overcast
7:55 AM 35.6 °F - 30.2 °F 81% 29.80 in 10.0 mi Calm Calm - N/A   Overcast
8:15 AM 35.6 °F 31.7 °F 30.2 °F 81% 29.80 in 10.0 mi East 4.6 mph - N/A   Overcast
8:35 AM 35.6 °F 30.7 °F 30.2 °F 81% 29.80 in 10.0 mi East 5.8 mph - N/A   Overcast
8:55 AM 35.6 °F 31.7 °F 30.2 °F 81% 29.81 in 10.0 mi ENE 4.6 mph - N/A   Overcast
9:55 AM 41.0 °F 38.0 °F 35.6 °F 81% 29.83 in 10.0 mi West 4.6 mph - N/A   Mostly Cloudy
10:15 AM 42.8 °F - 35.6 °F 76% 29.83 in 10.0 mi Calm Calm - N/A   Partly Cloudy
10:35 AM 46.4 °F 42.9 °F 37.4 °F 71% 29.84 in 10.0 mi WNW 6.9 mph - N/A   Clear
10:55 AM 50.0 °F - 33.8 °F 54% 29.84 in 10.0 mi WNW 19.6 mph - N/A   Clear
11:15 AM 51.8 °F - 33.8 °F 50% 29.85 in 10.0 mi WNW 16.1 mph - N/A   Clear
11:35 AM 51.8 °F - 32.0 °F 47% 29.85 in 10.0 mi WNW 15.0 mph 20.7 mph N/A   Clear
11:55 AM 51.8 °F - 30.2 °F 44% 29.84 in 10.0 mi WNW 15.0 mph - N/A   Partly Cloudy
12:15 PM 53.6 °F - 30.2 °F 41% 29.84 in 10.0 mi NW 13.8 mph 18.4 mph N/A   Scattered Clouds
12:35 PM 53.6 °F - 30.2 °F 41% 29.84 in 10.0 mi NW 12.7 mph - N/A   Partly Cloudy
12:55 PM 53.6 °F - 30.2 °F 41% 29.84 in 10.0 mi WNW 11.5 mph 18.4 mph N/A   Clear
1:15 PM 51.8 °F - 30.2 °F 44% 29.83 in 10.0 mi NW 8.1 mph 16.1 mph N/A   Clear
1:35 PM 53.6 °F - 30.2 °F 41% 29.83 in 10.0 mi West 11.5 mph - N/A   Mostly Cloudy
1:55 PM 51.8 °F - 28.4 °F 41% 29.83 in 10.0 mi West 13.8 mph - N/A   Scattered Clouds
2:15 PM 53.6 °F - 28.4 °F 38% 29.82 in 10.0 mi West 11.5 mph - N/A   Scattered Clouds
2:35 PM 53.6 °F - 28.4 °F 38% 29.82 in 10.0 mi WNW 8.1 mph - N/A   Partly Cloudy
3:15 PM 53.6 °F - 30.2 °F 41% 29.82 in 10.0 mi NNW 8.1 mph - N/A   Clear
3:35 PM 53.6 °F - 30.2 °F 41% 29.82 in 10.0 mi North 8.1 mph - N/A   Clear
3:55 PM 53.6 °F - 30.2 °F 41% 29.81 in 10.0 mi North 6.9 mph - N/A   Clear
4:15 PM 51.8 °F - 30.2 °F 44% 29.82 in 10.0 mi NNE 4.6 mph - N/A   Clear
4:35 PM 50.0 °F - 32.0 °F 50% 29.82 in 10.0 mi Calm Calm - N/A   Clear
4:55 PM 48.2 °F - 30.2 °F 50% 29.83 in 10.0 mi East 3.5 mph - N/A   Clear
5:15 PM 46.4 °F 45.2 °F 33.8 °F 62% 29.83 in 10.0 mi ENE 3.5 mph - N/A   Clear
5:35 PM 44.6 °F 40.7 °F 33.8 °F 66% 29.83 in 10.0 mi NE 6.9 mph - N/A   Clear
5:55 PM 44.6 °F 40.2 °F 30.2 °F 57% 29.83 in 10.0 mi NE 8.1 mph - N/A   Clear
6:15 PM 44.6 °F 43.1 °F 30.2 °F 57% 29.83 in 10.0 mi ESE 3.5 mph - N/A   Clear
6:35 PM 42.8 °F 40.1 °F 30.2 °F 61% 29.83 in 10.0 mi SSE 4.6 mph - N/A   Clear
6:55 PM 41.0 °F 37.1 °F 30.2 °F 65% 29.83 in 10.0 mi SE 5.8 mph - N/A   Clear
7:35 PM 41.0 °F - 30.2 °F 65% 29.83 in 10.0 mi Calm Calm - N/A   Clear
7:55 PM 41.0 °F 38.0 °F 30.2 °F 65% 29.83 in 10.0 mi ENE 4.6 mph - N/A   Clear
8:15 PM 39.2 °F 37.0 °F 30.2 °F 70% 29.83 in 10.0 mi ENE 3.5 mph - N/A   Clear
8:35 PM 39.2 °F 35.0 °F 30.2 °F 70% 29.82 in 10.0 mi East 5.8 mph - N/A   Clear
9:15 PM 39.2 °F - 30.2 °F 70% 29.83 in 10.0 mi Calm Calm - N/A   Clear
9:35 PM 39.2 °F 37.0 °F 30.2 °F 70% 29.83 in 10.0 mi East 3.5 mph - N/A   Clear
9:55 PM 37.4 °F - 30.2 °F 75% 29.83 in 10.0 mi Calm Calm - N/A   Clear
10:15 PM 37.4 °F 34.9 °F 30.2 °F 75% 29.83 in 10.0 mi ESE 3.5 mph - N/A   Clear
10:35 PM 39.2 °F 37.0 °F 30.2 °F 70% 29.83 in 10.0 mi SE 3.5 mph - N/A   Clear
10:55 PM 39.2 °F 35.9 °F 30.2 °F 70% 29.82 in 10.0 mi NE 4.6 mph - N/A   Clear
11:15 PM 39.2 °F 37.0 °F 28.4 °F 65% 29.83 in 10.0 mi ESE 3.5 mph - N/A   Clear
11:35 PM 37.4 °F - 28.4 °F 70% 29.83 in 10.0 mi Calm Calm - N/A   Clear
11:55 PM 37.4 °F 32.8 °F 28.4 °F 70% 29.83 in 10.0 mi East 5.8 mph - N/A   Clear